Location: Tel Aviv
(32.0670°N, 34.7670°E)
Time: 09:24:00
(UTC+02:00)

Vanguard 1 Rocket - Pass Details

Date: 11 December 2023
Orbit: 653 x 4219 km, 34.3° (Epoch: 28 February)

Event Time Altitude Azimuth Distance (km) Brightness Sun altitude
Exits shadow 04:35:34 24° 261° (W) 6,043 11.0 -23.8°
Maximum altitude 04:53:29 86° 350° (N) 3,117 9.9 -20.1°
Drops below altitude 10° 05:07:17 10° 81° (E) 4,466 11.9 -17.3°
Sets 05:09:57 0° 82° (E) 5,120 12.4 -16.8°
